Location: Houston
(29.7630°N, 95.3630°W)
Time: 03:42:30
(UTC-05:00)

Saudisat 1A - Visible Passes

Search period start: 28 July 2015 00:00
Search period end: 07 August 2015 00:00
Orbit: 575 x 623 km, 64.6° (Epoch: 27 July)

Date Brightness Start Highest point End Pass type
(mag) Time Alt. Az. Time Alt. Az. Time Alt. Az.
28 Jul 10.6 03:23:21 15° ENE 03:23:21 15° ENE 03:24:33 10° ENE visible
28 Jul 9.2 05:00:04 26° WNW 05:00:35 27° NW 05:04:18 10° N visible
29 Jul 10.1 03:34:09 24° NE 03:34:09 24° NE 03:36:07 10° NE visible
29 Jul 10.0 05:10:52 14° WNW 05:11:42 15° NW 05:14:05 10° NNW visible
30 Jul 9.8 03:44:54 29° NNE 03:44:54 29° NNE 03:47:08 10° NNE visible
31 Jul 9.9 03:55:37 25° N 03:55:37 25° N 03:57:47 10° NNE visible
01 Aug 10.2 04:06:16 18° NNW 04:06:16 18° NNW 04:08:01 10° N visible
02 Aug 11.3 02:40:11 10° NE 02:40:11 10° NE 02:40:12 10° NE visible
02 Aug 10.6 04:16:53 11° NW 04:16:53 11° NW 04:17:20 10° NNW visible
03 Aug 11.1 02:50:45 12° NNE 02:50:45 12° NNE 02:51:04 10° NNE visible
04 Aug 11.1 03:01:18 12° N 03:01:18 12° N 03:01:36 10° N visible
